Location: Recife
(8.0585°S, 34.8848°W)
Time: 21:27:47
(UTC-03:00)

A-11 Canister half - Pass Details

Date: 21 April 2026
Orbit: 1515 x 1684 km, 47.2° (Epoch: 12 May)

Event Time Altitude Azimuth Distance (km) Brightness Sun altitude
Rises 01:35:06 0° 249° (WSW) 4,714 - -56.1°
Reaches altitude 10° 01:39:12 10° 264° (W) 3,705 - -55.1°
Maximum altitude 01:45:37 21° 309° (NW) 2,915 - -53.6°
Drops below altitude 10° 01:52:01 10° 354° (N) 3,660 - -52.0°
Exits shadow 01:54:25 - 4° (N) 4,210 11.4 -51.4°
Sets 01:56:06 0° 9° (N) 4,641 11.7 -51.0°
